Location: �perlecques
(50.8057°N, 2.1521°E)
Time: 20:59:54
(UTC+00:00)

Tiros 1 - Pass Details

Date: 05 August 2021
Orbit: 630 x 663 km, 48.4° (Epoch: 28 September)

Event Time Altitude Azimuth Distance (km) Brightness Sun altitude
Rises 19:45:34 0° 272° (W) 2,984 11.8 -3.0°
Reaches altitude 10° 19:47:56 10° 269° (W) 2,067 10.8 -3.3°
Maximum altitude 19:52:39 62° 189° (S) 736 7.4 -3.9°
Drops below altitude 10° 19:57:18 10° 110° (ESE) 2,044 9.1 -4.5°
Enters shadow 19:58:27 - 108° (ESE) 2,491 9.5 -4.7°
Sets 19:59:38 0° 107° (ESE) 2,947 - -4.9°
